Location: Hengforden
(52.3167°N, 6.1333°E)
Time: 15:24:17
(UTC+00:00)

Cosmos 614 Rocket - Pass Details

Date: 14 June 2025
Orbit: 729 x 757 km, 74.1° (Epoch: 19 July)

Event Time Altitude Azimuth Distance (km) Brightness Sun altitude
Rises 21:08:08 0° 208° (SSW) 3,195 6.9 -7.8°
Reaches altitude 10° 21:10:30 10° 210° (SSW) 2,271 6.2 -8.0°
Maximum altitude 21:15:39 77° 296° (WNW) 773 4.2 -8.4°
Drops below altitude 10° 21:20:49 10° 23° (NNE) 2,269 7.0 -8.8°
Sets 21:23:10 0° 25° (NNE) 3,192 7.7 -9.0°
